Weather in Siazan

Azerbaijan     41°04′28″N   49°06′40″E
temp.,
°C
wind,
m/s
gust,
m/s
humid.,
%
clouds,
%
prec.,
mm/h
press.,
hPa
HPBL,
m
5 august, thu
thu501:00+26sw332812 0.0 101428
04:00+25sw43235 0.0 101328
07:00+27sw222048 0.0 101429
10:00+33ene331522 0.0 10131394
13:00+35e55154 0.0 10122166
16:00+33ene45185 0.0 10111476
19:00+30nne21253 0.0 1012316
22:00+25wsw32319 0.0 101320
6 august, fri
fri601:00+25sw22292 0.0 101314
04:00+25sw32260 0.0 101215
07:00+27ssw22220 0.0 101234
10:00+32ese35173 0.0 10111418
13:00+36sse66141 0.0 10103030
16:00+36se76140 0.0 10082935
19:00+33se57170 0.0 1009767
22:00+27sw44230 0.0 101044
7 august, sat
sat701:00+26sw44200 0.0 100940
04:00+26sw44210 0.0 100941
07:00+28sw45190 0.0 100981
10:00+35sse78120 0.0 10082150
13:00+37s88110 0.0 10072628
16:00+37s88120 0.0 10062289
19:00+34s59140 0.0 10061090
22:00+28ssw56190 0.0 100874
8 august, sun
sun801:00+28ssw57190 0.0 1008114
04:00+27ssw56205 0.0 100866
07:00+29ssw451759 0.0 1008105
10:00+36s471316 0.0 10091497
13:00+39ssw56134 0.0 10082135
16:00+36ese36180 0.0 10091727
19:00+33se35200 0.0 1010528
22:00+29sw44182 0.0 101136
9 august, mon
mon901:00+28sw321884 0.0 101220
04:00+27wsw22189 0.0 101311
07:00+28wsw3218100 0.0 101344
10:00+34ene3418100 0.0 10131292
13:00+37ese571824 0.0 10122155
16:00+37se67155 0.0 10112040
19:00+34se34175 0.0 1011161
22:00+29sw43211 0.0 101232